Location: Elstree
(51.6403°N, 0.2969°W)
Time: 10:18:56
(UTC+00:00)

Envisat - Pass Details

Date: 03 December 2022
Orbit: 763 x 765 km, 98.2° (Epoch: 28 January)

Event Time Altitude Azimuth Distance (km) Brightness Sun altitude
Rises 04:18:15 0° 15° (NNE) 3,247 6.5 -31.4°
Reaches altitude 10° 04:20:35 10° 18° (NNE) 2,316 5.7 -31.0°
Enters shadow 04:23:37 36° 26° (NNE) 1,197 4.1 -30.6°
